FW8436 Weather Reports


time (UTC)temp
C
wind
direction
speed
KPH
gust
KPH
rain 1hr
cm
rain 24hr
cm
rain mn
cm
humidity
%
barometer
mb
20260508131541 9 10 1.6 6.4 0.00 0.00 0.00 78 1018.4
20260508131031 8 0 1.6 8.0 0.00 0.00 0.00 80 1018.4
20260508130532 7 338 1.6 8.0 0.00 0.00 0.00 82 1018.4
20260508130104 7 355 0.0 4.8 0.00 0.00 0.00 85 1018.3
20260508125533 7 360 1.6 4.8 0.00 0.00 0.00 86 1018.4
20260508125031 7 360 1.6 4.8 0.00 0.00 0.00 88 1018.5
20260508124550 6 329 0.0 4.8 0.00 0.00 0.00 90 1018.5
20260508124030 6 234 0.0 4.8 0.00 0.00 0.00 92 1018.5
20260508123534 6 184 0.0 3.2 0.00 0.00 0.00 94 1018.5
20260508123041 6 188 0.0 3.2 0.00 0.00 0.00 95 1018.6
20260508122532 5 0 0.0 3.2 0.00 0.00 0.00 95 1018.5
20260508122029 5 0 1.6 3.2 0.00 0.00 0.00 96 1018.5
20260508121556 4 0 1.6 3.2 0.00 0.00 0.00 96 1018.5
20260508121030 4 197 1.6 3.2 0.00 0.00 0.00 96 1018.5
20260508120532 4 360 0.0 3.2 0.00 0.00 0.00 96 1018.5
20260508120044 3 0 0.0 3.2 0.00 0.00 0.00 96 1018.5
20260508115531 3 0 0.0 0.0 0.00 0.00 0.00 96 1018.5
20260508115030 2 0 0.0 0.0 0.00 0.00 0.00 96 1018.5
20260508114540 1 0 0.0 0.0 0.00 0.00 0.00 95 1018.5
20260508114122 1 0 0.0 0.0 0.00 0.00 0.00 95 1018.4
20260508113531 0 0 0.0 0.0 0.00 0.00 0.00 95 1018.3
20260508113044 0 0 0.0 0.0 0.00 0.00 0.00 95 1018.3
20260508112530 0 0 0.0 0.0 0.00 0.00 0.00 94 1018.2
20260508112029 0 0 0.0 0.0 0.00 0.00 0.00 94 1018.1
20260508111545 0 0 0.0 0.0 0.00 0.00 0.00 95 1018.1
20260508111031 0 0 0.0 0.0 0.00 0.00 0.00 95 1018.0
20260508110529 0 0 0.0 0.0 0.00 0.00 0.00 94 1018.0
20260508110037 0 0 0.0 0.0 0.00 0.00 0.00 95 1018.1
20260508105532 0 0 0.0 0.0 0.00 0.00 0.00 94 1018.0
20260508105029 0 0 0.0 0.0 0.00 0.00 0.00 94 1018.0
20260508104608 0 0 0.0 0.0 0.00 0.00 0.00 94 1017.9
20260508104029 0 0 0.0 0.0 0.00 0.00 0.00 94 1017.9
20260508103529 0 0 0.0 0.0 0.00 0.00 0.00 94 1017.9
20260508103044 0 0 0.0 0.0 0.00 0.00 0.00 94 1017.9
20260508102529 0 0 0.0 0.0 0.00 0.00 0.00 94 1017.9
20260508102029 0 0 0.0 0.0 0.00 0.00 0.00 94 1017.9
20260508101541 0 0 0.0 0.0 0.00 0.00 0.00 94 1017.9
20260508101031 0 0 0.0 0.0 0.00 0.00 0.00 94 1017.8
20260508100530 0 0 0.0 0.0 0.00 0.00 0.00 94 1017.8
20260508100039 0 0 0.0 0.0 0.00 0.00 0.00 94 1017.7
20260508095530 0 0 0.0 0.0 0.00 0.00 0.00 94 1017.6
20260508095029 0 0 0.0 0.0 0.00 0.00 0.00 94 1017.6
20260508094543 0 0 0.0 0.0 0.00 0.00 0.00 94 1017.6
20260508094029 0 0 0.0 0.0 0.00 0.00 0.00 94 1017.5
20260508093531 0 0 0.0 0.0 0.00 0.00 0.00 94 1017.5
20260508093038 0 0 0.0 0.0 0.00 0.00 0.00 94 1017.6
20260508092530 0 0 0.0 0.0 0.00 0.00 0.00 94 1017.4
20260508092029 0 0 0.0 0.0 0.00 0.00 0.00 94 1017.4
20260508091545 0 0 0.0 0.0 0.00 0.00 0.00 94 1017.3
20260508091029 0 0 0.0 0.0 0.00 0.00 0.00 94 1017.3
20260508090529 0 0 0.0 3.2 0.00 0.00 0.00 94 1017.4
20260508085530 0 0 0.0 3.2 0.00 0.00 0.00 94 1017.2
20260508085029 0 0 0.0 3.2 0.00 0.00 0.00 94 1017.2
20260508084539 0 360 0.0 0.0 0.00 0.00 0.00 94 1017.2
20260508084032 0 0 0.0 0.0 0.00 0.00 0.00 94 1017.1
20260508083533 0 0 0.0 0.0 0.00 0.00 0.00 94 1017.2
20260508083056 0 0 0.0 0.0 0.00 0.00 0.00 94 1017.2
20260508082533 0 0 0.0 0.0 0.00 0.00 0.00 94 1017.2
20260508082030 0 0 0.0 0.0 0.00 0.00 0.00 94 1017.1
20260508081551 0 0 0.0 0.0 0.00 0.00 0.00 94 1017.0
20260508081029 0 0 0.0 1.6 0.00 0.00 0.00 94 1017.1
20260508080533 0 0 0.0 1.6 0.00 0.00 0.00 94 1017.0
20260508080047 1 0 0.0 1.6 0.00 0.00 0.00 94 1016.9
20260508075530 0 0 0.0 0.0 0.00 0.03 0.00 94 1017.0
20260508075034 1 0 0.0 0.0 0.00 0.03 0.00 94 1017.0
20260508074546 1 0 0.0 1.6 0.00 0.03 0.00 94 1016.9
20260508074033 1 0 0.0 1.6 0.00 0.03 0.00 94 1017.1
20260508073533 1 0 0.0 1.6 0.00 0.03 0.00 94 1017.0
20260508073044 1 0 0.0 0.0 0.00 0.03 0.00 94 1017.0
20260508072530 1 0 0.0 3.2 0.00 0.03 0.00 94 1016.9
20260508072033 1 0 0.0 3.2 0.00 0.03 0.00 94 1016.7
20260508071541 2 0 0.0 0.0 0.00 0.03 0.00 94 1016.6
20260508071030 1 0 0.0 0.0 0.00 0.03 0.00 94 1016.7
20260508070532 1 0 0.0 0.0 0.00 0.03 0.00 94 1016.6
20260508070122 1 0 0.0 4.8 0.00 0.03 0.00 94 1016.6
20260508065532 1 0 0.0 4.8 0.00 0.03 0.00 93 1016.7
20260508065032 1 0 1.6 4.8 0.00 0.03 0.00 94 1016.7
20260508064605 2 0 0.0 1.6 0.00 0.03 0.00 94 1016.8
20260508064033 1 0 0.0 3.2 0.00 0.03 0.00 94 1016.7
20260508063536 1 0 0.0 3.2 0.00 0.03 0.00 94 1016.6
20260508063049 2 360 0.0 3.2 0.00 0.03 0.00 93 1016.6
20260508062534 2 0 0.0 3.2 0.00 0.03 0.00 94 1016.7
20260508062034 2 0 0.0 3.2 0.00 0.03 0.00 93 1016.8
20260508061549 2 0 0.0 3.2 0.00 0.03 0.00 93 1016.8
20260508061035 2 0 0.0 3.2 0.00 0.03 0.00 93 1016.8
20260508060535 2 0 0.0 3.2 0.00 0.03 0.00 93 1016.9
20260508060045 2 360 0.0 3.2 0.00 0.03 0.00 93 1016.9
20260508055533 3 0 0.0 1.6 0.00 0.03 0.00 94 1016.9
20260508055033 3 0 0.0 1.6 0.00 0.03 0.00 94 1017.0
20260508054543 2 0 0.0 4.8 0.00 0.03 0.00 93 1016.8
20260508054033 3 0 0.0 4.8 0.00 0.03 0.00 93 1016.9
20260508053534 3 0 0.0 4.8 0.00 0.03 0.00 93 1016.9
20260508053039 3 0 0.0 4.8 0.00 0.03 0.00 94 1016.8
20260508052529 3 0 0.0 4.8 0.00 0.03 0.00 93 1016.7
20260508052029 3 360 0.0 4.8 0.00 0.03 0.00 94 1016.7
20260508051540 3 0 1.6 4.8 0.00 0.03 0.00 93 1016.6
20260508051034 3 0 0.0 1.6 0.00 0.03 0.00 93 1016.5
20260508050534 4 0 0.0 4.8 0.00 0.03 0.00 93 1016.4
20260508050047 4 0 0.0 4.8 0.00 0.03 0.00 94 1016.2
20260508045531 4 360 1.6 4.8 0.00 0.03 0.00 94 1016.2
20260508045034 4 360 0.0 4.8 0.00 0.03 0.00 93 1016.2
20260508044541 4 0 0.0 4.8 0.00 0.03 0.00 93 1016.1
20260508044034 4 360 0.0 4.8 0.00 0.03 0.00 94 1015.8
20260508043537 4 0 0.0 4.8 0.00 0.03 0.00 93 1015.8
20260508043057 4 0 0.0 3.2 0.00 0.03 0.00 93 1015.8
20260508042533 5 0 0.0 3.2 0.00 0.03 0.00 93 1015.9
20260508042030 5 0 0.0 3.2 0.00 0.03 0.00 93 1015.9
20260508041542 4 0 0.0 6.4 0.00 0.03 0.00 93 1015.8
20260508041033 5 0 1.6 6.4 0.00 0.03 0.00 93 1015.8
20260508040530 5 0 0.0 3.2 0.00 0.03 0.00 93 1015.8
20260508040041 5 0 0.0 4.8 0.00 0.03 0.00 93 1015.7
20260508035530 5 0 1.6 4.8 0.00 0.03 0.03 93 1015.7
20260508035031 5 0 0.0 4.8 0.00 0.03 0.03 92 1015.7
20260508034539 5 360 0.0 4.8 0.00 0.03 0.03 93 1015.7
20260508034030 5 0 0.0 4.8 0.00 0.03 0.03 93 1015.7
20260508033530 5 0 0.0 3.2 0.00 0.03 0.03 93 1015.6
20260508033037 5 0 0.0 3.2 0.00 0.03 0.03 92 1015.4
20260508032530 5 360 0.0 1.6 0.00 0.03 0.03 92 1015.5
20260508032034 5 0 0.0 3.2 0.00 0.03 0.03 92 1015.6
20260508031551 5 0 0.0 3.2 0.00 0.03 0.03 92 1015.6
20260508031035 5 360 0.0 1.6 0.00 0.03 0.03 92 1015.6
20260508030533 6 0 0.0 1.6 0.00 0.03 0.03 92 1015.5
20260508030050 5 0 0.0 3.2 0.00 0.03 0.03 92 1015.5
20260508025533 5 0 0.0 3.2 0.00 0.08 0.03 92 1015.4
20260508025030 6 360 0.0 3.2 0.00 0.08 0.03 91 1015.2
20260508024539 6 0 0.0 0.0 0.00 0.08 0.03 91 1015.2
20260508024031 6 0 0.0 3.2 0.00 0.08 0.03 91 1015.2
20260508023531 6 0 0.0 3.2 0.00 0.08 0.03 91 1015.1
20260508023041 6 360 0.0 3.2 0.00 0.08 0.03 90 1015.0
20260508022532 6 0 0.0 3.2 0.00 0.08 0.03 89 1014.9
20260508022031 7 0 0.0 4.8 0.00 0.08 0.03 90 1014.8
20260508021541 7 0 1.6 4.8 0.00 0.08 0.03 90 1014.6
20260508021031 7 360 0.0 6.4 0.00 0.08 0.03 90 1014.6
20260508020529 7 268 1.6 6.4 0.00 0.08 0.03 89 1014.6
20260508020045 7 360 0.0 3.2 0.00 0.08 0.03 89 1014.4
20260508015533 7 0 0.0 4.8 0.00 0.64 0.03 89 1014.4
20260508015030 7 0 0.0 4.8 0.00 0.64 0.03 89 1014.4
20260508014545 7 360 0.0 4.8 0.00 0.64 0.03 88 1014.3
20260508014032 7 360 0.0 3.2 0.00 0.64 0.03 88 1014.1
20260508013533 7 268 0.0 3.2 0.00 0.64 0.03 87 1014.1
20260508013050 7 0 0.0 3.2 0.00 0.64 0.03 86 1014.0
20260508012533 8 0 0.0 3.2 0.00 0.64 0.03 86 1013.9
20260508012030 8 0 0.0 3.2 0.00 0.64 0.03 84 1013.9
20260508011544 8 268 0.0 4.8 0.00 0.64 0.03 83 1013.9
20260508011030 8 0 0.0 4.8 0.00 0.64 0.03 83 1013.9
20260508010530 8 262 0.0 3.2 0.00 0.64 0.03 82 1013.9
20260508010045 9 0 0.0 4.8 0.00 0.64 0.03 80 1013.7
20260508005532 10 0 0.0 4.8 0.00 0.91 0.03 78 1013.7
20260508005032 10 270 1.6 6.4 0.00 0.91 0.03 76 1013.6
20260508004545 10 270 1.6 8.0 0.00 0.91 0.03 72 1013.7
20260508004032 10 272 3.2 8.0 0.00 0.91 0.03 73 1013.6
20260508003529 10 234 1.6 8.0 0.00 0.91 0.03 74 1013.6
20260508003041 11 0 0.0 8.0 0.00 0.91 0.03 71 1013.5
20260508002534 11 234 3.2 8.0 0.00 0.91 0.03 72 1013.5
20260508002034 11 0 0.0 6.4 0.00 0.91 0.03 71 1013.6
20260508001543 11 164 0.0 6.4 0.00 0.91 0.03 70 1013.6
20260508001034 11 0 1.6 6.4 0.00 0.91 0.03 70 1013.7
20260508000530 11 232 1.6 9.7 0.00 0.91 0.03 69 1013.6
20260508000040 12 243 3.2 9.7 0.00 0.91 0.03 69 1013.4
20260507235530 12 211 1.6 6.4 0.00 0.91 0.03 67 1013.3
20260507235029 12 281 1.6 9.7 0.00 0.91 0.03 65 1013.4
20260507234547 12 226 1.6 9.7 0.00 0.91 0.03 65 1013.4
20260507234029 12 31 1.6 11.3 0.00 0.91 0.03 66 1013.4
20260507233533 13 254 1.6 11.3 0.00 0.91 0.03 64 1013.4
20260507233045 13 332 3.2 14.5 0.00 0.91 0.03 64 1013.3
20260507232533 13 0 1.6 16.1 0.00 0.91 0.03 64 1013.3
20260507232033 13 298 1.6 16.1 0.00 0.91 0.03 63 1013.3
20260507231555 14 195 1.6 9.7 0.00 0.91 0.03 63 1013.2
20260507231033 14 269 0.0 12.9 0.00 0.91 0.03 63 1013.2
20260507230533 13 300 3.2 12.9 0.00 0.91 0.03 62 1013.2
20260507230044 13 322 4.8 12.9 0.00 0.91 0.03 63 1013.1
20260507225534 14 234 4.8 11.3 0.00 0.91 0.03 62 1013.1
20260507225030 14 83 3.2 12.9 0.00 0.91 0.03 63 1013.1
20260507224540 14 355 3.2 12.9 0.00 0.91 0.03 64 1013.0
20260507224030 14 319 1.6 16.1 0.00 0.91 0.03 63 1013.1
20260507223530 14 209 1.6 16.1 0.00 0.91 0.03 63 1012.9
20260507223039 14 335 3.2 16.1 0.00 0.91 0.03 62 1013.1
20260507222530 14 291 6.4 12.9 0.00 0.91 0.03 63 1012.9
20260507222030 14 340 3.2 20.9 0.00 0.91 0.03 64 1012.8
20260507221535 14 349 6.4 20.9 0.00 0.91 0.03 63 1012.8
20260507221030 14 289 3.2 12.9 0.00 0.91 0.03 63 1012.7
20260507220532 14 329 3.2 12.9 0.00 0.91 0.03 63 1012.7
20260507220034 13 217 3.2 9.7 0.00 0.91 0.03 65 1012.7
20260507215531 14 319 3.2 14.5 0.00 0.91 0.03 62 1012.6
20260507215033 15 273 3.2 17.7 0.00 0.91 0.03 62 1012.5
20260507214544 15 328 6.4 17.7 0.00 0.91 0.03 63 1012.4
20260507214033 15 63 4.8 19.3 0.00 0.91 0.03 62 1012.4
20260507213533 15 55 4.8 19.3 0.00 0.91 0.03 61 1012.3
20260507213041 16 261 3.2 14.5 0.00 0.91 0.03 59 1012.3
20260507212536 16 261 1.6 19.3 0.00 0.91 0.03 62 1012.1
20260507212030 15 84 3.2 19.3 0.00 0.91 0.03 64 1012.1
20260507211539 15 273 6.4 17.7 0.00 0.91 0.03 60 1012.0
20260507211029 16 67 4.8 17.7 0.00 0.91 0.03 61 1012.0
20260507210530 16 50 4.8 17.7 0.00 0.91 0.03 62 1011.8
20260507210039 16 273 4.8 16.1 0.00 0.91 0.03 62 1011.8
20260507205530 16 286 3.2 16.1 0.00 0.91 0.03 64 1011.8
20260507205030 15 76 4.8 16.1 0.00 0.91 0.03 66 1012.0
20260507204539 16 298 1.6 12.9 0.00 0.91 0.03 68 1012.0
20260507204032 15 195 6.4 17.7 0.00 0.91 0.03 69 1012.2
20260507203533 15 273 8.0 20.9 0.00 0.91 0.03 64 1012.0
20260507203045 15 10 6.4 20.9 0.00 0.91 0.03 67 1012.0
20260507202531 15 323 4.8 19.3 0.00 0.91 0.03 67 1011.9
20260507202033 15 282 4.8 12.9 0.00 0.91 0.03 65 1011.9
20260507201540 14 248 1.6 14.5 0.00 0.91 0.03 69 1011.8
20260507201033 14 123 4.8 17.7 0.00 0.91 0.03 69 1011.9
20260507200537 14 194 6.4 19.3 0.00 0.91 0.03 66 1011.7
20260507200049 15 311 4.8 19.3 0.00 0.91 0.03 65 1011.7
20260507195535 16 242 4.8 16.1 0.00 0.91 0.03 66 1011.6
20260507195033 15 60 3.2 17.7 0.00 0.91 0.03 68 1011.7
20260507194547 15 223 6.4 17.7 0.00 0.91 0.03 66 1011.7
20260507194030 15 94 0.0 14.5 0.00 0.91 0.03 72 1011.6
20260507193530 14 283 3.2 14.5 0.00 0.91 0.03 68 1011.9
20260507193037 15 0 3.2 16.1 0.00 0.91 0.03 71 1012.0
20260507192533 14 256 3.2 16.1 0.00 0.91 0.03 72 1012.1
20260507192035 14 355 4.8 14.5 0.00 0.91 0.03 72 1012.2
20260507191603 14 306 4.8 16.1 0.00 0.91 0.03 74 1012.4
20260507191029 13 0 3.2 16.1 0.00 0.91 0.03 75 1012.4
20260507190533 14 225 3.2 16.1 0.00 0.91 0.03 72 1012.5
20260507190045 14 355 3.2 16.1 0.00 0.91 0.03 77 1012.5
20260507185534 13 350 4.8 12.9 0.00 0.91 0.03 75 1012.4
20260507185034 13 252 3.2 11.3 0.00 0.91 0.03 77 1012.4
20260507184555 13 232 1.6 8.0 0.00 0.91 0.03 78 1012.5
20260507184033 12 238 0.0 8.0 0.00 0.91 0.03 78 1012.5
20260507183534 12 287 1.6 8.0 0.00 0.91 0.03 79 1012.8
20260507183046 12 327 1.6 8.0 0.00 0.91 0.03 77 1012.7
20260507182533 12 335 1.6 8.0 0.00 0.91 0.03 77 1012.9
20260507182031 12 0 1.6 6.4 0.00 0.91 0.03 77 1012.9
20260507181540 12 0 0.0 12.9 0.00 0.91 0.03 75 1012.8
20260507181033 13 63 0.0 12.9 0.00 0.91 0.03 76 1012.7
20260507180530 13 138 4.8 12.9 0.00 0.91 0.03 75 1012.6
20260507180041 13 106 1.6 9.7 0.00 0.91 0.03 79 1012.7
20260507175529 12 325 3.2 14.5 0.00 0.91 0.03 76 1012.7
20260507175033 12 355 4.8 14.5 0.00 0.91 0.03 76 1012.6
20260507174537 13 50 1.6 12.9 0.00 0.91 0.03 79 1012.7
20260507174029 12 61 3.2 12.9 0.00 0.91 0.03 78 1012.7
20260507173535 12 69 1.6 9.7 0.00 0.91 0.03 78 1012.7
20260507173041 12 0 1.6 12.9 0.00 0.91 0.03 80 1012.7
20260507172534 12 311 4.8 12.9 0.00 0.91 0.03 77 1012.7
20260507172033 12 286 3.2 8.0 0.00 0.91 0.03 78 1012.9
20260507171548 12 0 1.6 6.4 0.00 0.91 0.03 79 1012.9
20260507171033 12 0 0.0 9.7 0.00 0.91 0.03 80 1012.9
20260507170533 12 68 1.6 9.7 0.00 0.91 0.03 81 1013.1
20260507170042 12 40 3.2 11.3 0.00 0.91 0.03 80 1013.0
20260507165535 12 309 3.2 11.3 0.00 1.04 0.03 80 1012.9
20260507165031 12 297 3.2 8.0 0.00 1.04 0.03 81 1013.0
20260507164604 12 52 0.0 6.4 0.00 1.04 0.03 83 1013.0
20260507164030 11 21 1.6 6.4 0.00 1.04 0.03 82 1013.1
20260507163538 11 314 1.6 6.4 0.00 1.04 0.03 84 1013.1
20260507163049 11 42 0.0 4.8 0.00 1.04 0.03 86 1013.1
20260507162534 11 35 0.0 8.0 0.00 1.04 0.03 85 1013.1
20260507162034 11 325 1.6 8.0 0.00 1.04 0.03 83 1013.2
20260507161552 11 306 3.2 8.0 0.00 1.04 0.03 82 1013.2
20260507161033 11 62 1.6 8.0 0.00 1.04 0.03 84 1013.2
20260507160535 11 80 1.6 9.7 0.00 1.04 0.03 84 1013.2
20260507160048 11 46 1.6 9.7 0.00 1.04 0.03 85 1013.2
20260507155535 11 53 1.6 9.7 0.00 1.12 0.03 85 1013.1
20260507155034 10 325 1.6 6.4 0.00 1.12 0.03 84 1013.3
20260507154548 10 0 1.6 6.4 0.00 1.12 0.03 85 1013.3
20260507154030 11 0 0.0 3.2 0.00 1.12 0.03 86 1013.3
20260507153533 10 0 0.0 3.2 0.00 1.12 0.03 85 1013.4
20260507153039 10 0 0.0 6.4 0.00 1.12 0.03 83 1013.5
20260507152532 10 0 1.6 6.4 0.00 1.12 0.03 82 1013.4
20260507152030 11 0 1.6 6.4 0.00 1.12 0.03 84 1013.3
20260507151548 11 49 1.6 4.8 0.00 1.12 0.03 85 1013.2
20260507151030 11 0 0.0 3.2 0.00 1.12 0.03 83 1013.3
20260507150530 11 337 0.0 3.2 0.00 1.12 0.03 83 1013.5
20260507150037 11 0 0.0 4.8 0.00 1.12 0.03 81 1013.4
20260507145530 10 0 0.0 6.4 0.00 1.24 0.03 82 1013.3
20260507145033 10 51 1.6 6.4 0.00 1.24 0.03 83 1013.3
20260507144545 10 306 1.6 9.7 0.00 1.24 0.03 81 1013.4
20260507144033 11 310 1.6 9.7 0.00 1.24 0.03 81 1013.3
20260507143533 11 30 1.6 8.0 0.00 1.24 0.03 83 1013.3
20260507143100 11 40 1.6 8.0 0.00 1.24 0.03 84 1013.2
20260507142533 11 11 3.2 8.0 0.00 1.24 0.03 85 1013.2
20260507142033 11 72 0.0 6.4 0.00 1.24 0.03 87 1013.3
20260507141555 11 72 0.0 6.4 0.00 1.24 0.03 87 1013.2
20260507141034 11 72 1.6 6.4 0.00 1.24 0.03 86 1013.2
20260507140535 11 71 1.6 6.4 0.00 1.24 0.03 87 1013.0
20260507140039 11 71 1.6 11.3 0.00 1.24 0.03 86 1013.1
20260507135530 11 78 4.8 11.3 0.00 1.45 0.03 86 1013.1
20260507135030 11 59 3.2 6.4 0.00 1.45 0.03 87 1013.3
20260507134549 11 88 1.6 9.7 0.00 1.45 0.03 88 1013.3
20260507134034 11 79 1.6 9.7 0.00 1.45 0.03 89 1013.1
20260507133533 11 93 1.6 9.7 0.00 1.45 0.03 89 1013.0
20260507133048 11 0 0.0 3.2 0.00 1.45 0.03 90 1013.1
20260507132529 11 0 0.0 3.2 0.00 1.45 0.03 90 1013.3
20260507132029 11 0 0.0 6.4 0.00 1.45 0.03 91 1013.3